Skip to main content Skip to accessibility
This website is not compatible with your web browser. You should install a newer browser. If you live in Jersey and need help upgrading call the States of Jersey web team on 440099.
Homegov.je

L'înformâtion et les sèrvices publyis pouor I'Île dé Jèrri

  • Choose the service you want to log in to:

  • gov.je

    Update your notification preferences

  • one.gov.je

    Access government and parish services

  • CAESAR

    Clear goods through customs or claim relief

  • Talentlink

    View or update your States of Jersey job application

Local METARs

METAR EGJJ 250350Z AUTO 31008KT 9999 NCD 11/11 Q1020

METAR EGJB 250350Z 30009KT 5000 BR BKN003 12/12 Q1020

METAR LFRD 250330Z AUTO 31010KT 9999 BKN007 OVC022 13/11 Q1020 TEMPO BKN004

METAR LFRC 250330Z AUTO 30007KT 7000 NSC 11/11 Q1019

 

 

 

​Times are in Greenwich Mean Time (GMT) and not British Summer Time (BST). They will be one hour different during BST.

Back to top
rating button